Location: Dugenta
(41.1333°N, 14.4500°E)
Time: 11:11:35
(UTC+00:00)

Cosmos 1862 Rocket - Pass Details

Date: 03 March 2021
Orbit: 603 x 635 km, 82.5° (Epoch: 21 April)

Event Time Altitude Azimuth Distance (km) Brightness Sun altitude
Rises 17:23:23 0° 358° (N) 2,941 7.0 -6.1°
Reaches altitude 10° 17:25:43 10° 4° (N) 2,028 6.1 -6.5°
Maximum altitude 17:30:03 47° 78° (ENE) 847 3.9 -7.3°
Drops below altitude 10° 17:34:21 10° 153° (SSE) 2,006 5.9 -8.1°
Sets 17:36:38 0° 159° (SSE) 2,905 6.8 -8.5°
